Location: Amifontaine
(49.4833°N, 3.9167°E)
Time: 09:58:12
(UTC+00:00)

Daily predictions for brighter satellites

Satellite Brightness Start Highest point End
(mag) Time Altitude Azimuth Time Altitude Azimuth Time Altitude Azimuth
Cosmos 1980 3.7 18:32:31 10° SSW 18:38:09 68° ESE 18:43:49 10° NNE
STARLINK-1099 4.1 18:34:48 10° WNW 18:38:52 54° N 18:42:56 10° E
S3M 4.1 18:34:26 10° S 18:40:41 61° E 18:46:58 10° NNE
Cosmos 2084 3.7 18:37:44 10° SW 18:42:13 84° NW 18:46:44 10° NE
STARLINK-1224 4.5 18:39:06 10° SSW 18:42:38 30° SE 18:46:10 10° E
Ariane Rocket 3.1 18:37:40 10° SSE 18:42:40 62° ENE 18:47:41 10° N
Cosmos 1386 Rocket 4.4 18:36:43 10° N 18:42:47 69° ENE 18:48:46 10° SSE
YAOGAN 1 3.8 18:38:41 10° S 18:42:52 48° W 18:47:05 10° NNW
SL-08 ROCKET BODY 4.5 18:36:50 10° N 18:42:59 68° ENE 18:49:00 10° SSE
STARLINK-1104 4.1 18:39:48 10° WNW 18:43:52 55° N 18:47:58 10° E
Cosmos 1455 Rocket 3.4 18:41:39 10° SSE 18:45:43 41° E 18:49:50 10° NNE
Cosmos 1110 Rocket 4.0 18:41:24 10° NNW 18:46:42 80° ENE 18:51:55 10° SSE
STARLINK-1225 4.4 18:43:42 10° SSW 18:47:18 32° SE 18:50:55 10° ENE
Cosmos 332 Rocket 4.2 18:43:01 10° NNW 18:47:56 73° WSW 18:52:49 10° SSE
STARLINK-1144 4.1 18:44:45 10° WNW 18:48:51 56° N 18:52:56 10° E
STARLINK-1203 4.2 18:45:37 10° SSW 18:49:12 34° SE 18:52:49 10° ENE
STARLINK-1072 3.6 18:46:03 10° WNW 18:50:04 80° SSW 18:54:03 10° ESE
Cosmos 1892 Rocket 3.6 18:46:00 10° N 18:50:31 81° E 18:55:00 10° SSE
SL-16 R/B 2.8 18:46:47 10° SSE 18:51:47 33° ESE 18:56:48 10° NE
STARLINK-1230 4.3 18:48:15 10° SSW 18:51:55 34° SE 18:55:35 10° ENE
Cosmos 1626 Rocket 4.3 18:48:00 10° N 18:52:01 32° ENE 18:55:57 10° SE
Cosmos 2333 Rocket 3.5 18:46:39 10° SW 18:52:05 44° NW 18:57:32 10° NNE
STARLINK-1103 4.0 18:49:44 10° WNW 18:53:50 57° N 18:57:56 10° E
STARLINK-1096 3.6 18:50:30 10° WNW 18:54:30 76° SSW 18:58:30 10° ESE
USA 186 2.1 18:51:42 10° SSE 18:55:02 50° ENE 18:58:20 10° N
Cosmos 1626 2.5 18:51:29 10° N 18:55:03 42° ENE 18:58:34 10° SSE
STARLINK-1234 2.9 18:52:09 10° SW 18:55:05 57° SSE 18:58:02 10° ENE
Cosmos 1953 4.1 18:54:07 10° ESE 18:55:57 13° E 18:57:46 10° NE
ARGOS Delta rocket 4.1 18:51:01 10° SSE 18:56:06 75° ENE 19:01:30 10° N
STARLINK-1243 4.2 18:52:52 10° SSW 18:56:34 36° SE 19:00:19 10° ENE
NOSS 2-1 (E) 3.4 18:54:36 10° SW 18:57:58 70° NW 19:01:51 10° NE
Okean 1-7 Rocket 3.5 18:54:00 10° N 18:58:27 84° E 19:02:49 10° S
STARLINK-1101 4.0 18:54:45 10° WNW 18:58:51 59° NNE 19:02:46 11° E
STARLINK-1079 3.7 18:54:58 10° WNW 18:58:59 72° SSW 19:02:49 11° SE
Cosmos 1602 Rocket 4.4 18:55:33 10° N 18:59:33 31° ENE 19:03:30 10° SE
STARLINK-1236 4.1 18:57:27 10° SSW 19:01:13 39° SE 19:05:00 10° ENE
ATLAS 2AS CENTAUR R/B 4.1 18:56:15 10° NW 19:03:13 33° NNE 19:09:47 10° E
STARLINK-1116 3.7 18:59:28 10° WNW 19:03:26 68° SSW 19:07:08 12° SE
STARLINK-1102 3.9 18:59:44 10° WNW 19:03:51 60° NNE 19:07:32 12° E
SJ-11-01 4.5 19:01:15 10° S 19:05:57 78° WSW 19:10:41 10° NNW
H-2A R/B 2.1 19:01:39 10° SSE 19:06:58 81° ENE 19:12:10 10° NNW
Aureole 2 Rocket 4.2 19:06:20 10° N 19:08:49 18° NE 19:10:31 13° E
STARLINK-1111 3.9 19:04:42 10° WNW 19:08:49 62° NNE 19:12:19 14° E
STARLINK-1269 3.9 19:06:44 10° SW 19:10:35 45° SE 19:14:25 10° ENE
STARLINK-1094 3.9 19:08:27 10° WNW 19:12:25 60° SSW 19:15:46 14° SE
Cosmos 1745 Rocket 4.4 19:06:11 10° NNW 19:12:29 70° W 19:18:40 10° S
ERBS 3.1 19:09:14 10° WSW 19:12:33 51° NNW 19:15:52 10° NE
Cosmos 1544 Rocket 3.6 19:08:48 10° S 19:13:06 60° E 19:17:29 10° NNE
STARLINK-1073 3.8 19:09:41 10° WNW 19:13:49 64° NNE 19:17:06 16° E
Cosmos 2297 3.7 19:08:45 10° NNW 19:14:27 85° ENE 19:20:10 10° SSE
USA 234 3.5 19:08:57 10° ENE 19:15:11 45° SE 19:21:24 10° SSW
CZ-2C R/B 4.3 19:10:48 10° NNE 19:15:15 37° E 19:19:37 10° SSE
STARLINK-1200 3.8 19:11:22 10° SW 19:15:16 48° SSE 19:18:57 11° ENE
NOSS 0 Rocket 4.5 19:09:44 10° SW 19:15:54 64° NW 19:22:04 10° NNE
STARLINK-1117 3.9 19:12:58 10° WNW 19:16:55 57° SSW 19:20:06 15° SE
Meteor 2-5 Rocket 4.5 19:12:19 10° NNW 19:17:53 56° W 19:23:18 10° S
STARLINK-1121 3.8 19:14:41 10° WNW 19:18:49 66° NNE 19:21:53 17° E
STARLINK-1192 3.7 19:15:58 10° SW 19:19:53 51° SSE 19:23:24 13° ENE
ADEOS Rocket 4.1 19:13:18 10° N 19:20:02 53° WNW 19:26:05 10° SW
STARLINK-1078 4.0 19:17:28 10° WNW 19:21:24 53° SSW 19:24:26 16° SE
Cosmos 1805 4.3 19:17:57 10° SSW 19:21:46 50° WNW 19:25:36 10° N
Cosmos 2237 Rocket 2.7 19:16:17 10° SW 19:21:52 65° WNW 19:27:30 10° NNE
STARLINK-1106 3.8 19:19:39 10° WNW 19:23:47 69° NNE 19:26:39 19° E
Cosmos 1302 Rocket 4.0 19:18:57 10° NNW 19:24:15 81° ENE 19:29:33 10° SSE
STARLINK-1244 3.7 19:20:44 10° SW 19:24:40 55° SSE 19:28:00 14° ENE
STARLINK-1201 2.9 19:21:46 10° WSW 19:25:01 75° SSE 19:27:31 16° ENE
STARLINK-1108 4.1 19:22:01 10° WNW 19:25:55 50° SSW 19:28:47 17° SE
Cosmos 2278 Rocket 4.3 19:21:35 10° NW 19:26:18 27° WSW 19:30:59 10° SSW
CZ-2C R/B 3.3 19:22:36 10° NNE 19:27:13 31° E 19:31:47 10° SSE
STARLINK-1112 3.7 19:24:39 10° WNW 19:28:48 71° NNE 19:31:27 21° E
Cosmos 1269 Rocket 3.9 19:23:54 10° SSW 19:29:10 78° ESE 19:34:30 10° NNE
STARLINK-1138 3.6 19:25:23 10° SW 19:29:21 58° SSE 19:32:32 15° ENE
STARLINK-1209 2.7 19:27:26 10° WSW 19:30:21 80° NNW 19:32:14 20° ENE
STARLINK-1071 4.2 19:26:32 10° WNW 19:30:25 47° SW 19:33:08 18° SE
STARLINK-1228 2.7 19:28:26 10° WSW 19:31:19 79° NNW 19:33:09 20° ENE
STARLINK-1124 4.3 19:27:26 10° WNW 19:31:25 47° SW 19:34:14 18° SSE
Meteor 1-24 Rocket 4.4 19:27:47 10° NNW 19:33:13 55° W 19:38:28 10° S
STARLINK-1128 3.7 19:29:38 10° WNW 19:33:48 74° NNE 19:36:15 24° E
STARLINK-1143 3.5 19:30:08 10° SW 19:34:08 62° SSE 19:37:08 17° ENE
SL-8 R/B 3.6 19:30:07 10° W 19:34:54 81° S 19:38:02 22° E
STARLINK-1110 4.3 19:31:04 10° WNW 19:34:55 44° SW 19:37:29 19° SSE
ARGOS 3.4 19:29:43 10° S 19:35:06 73° WSW 19:40:32 10° NNW
Cosmos 2251 Rocket 4.3 19:31:40 10° SSE 19:36:12 29° E 19:40:47 10° NE
SL-24 R/B 4.2 19:32:33 10° NNE 19:37:12 53° E 19:41:15 10° S
STARLINK-1113 3.6 19:34:37 10° WNW 19:38:47 77° NNE 19:41:02 26° ESE
Cosmos 1470 2.6 19:38:06 10° S 19:41:57 75° E 19:45:51 10° NNE
STARLINK-1119 3.6 19:39:35 10° WNW 19:43:45 81° NNE 19:45:48 29° ESE
STARLINK-1241 3.4 19:40:33 10° SW 19:44:32 71° SSE 19:47:06 21° ENE
STARLINK-1233 2.9 19:41:38 10° WSW 19:44:46 81° NNW 19:46:21 27° ENE
STARLINK-1212 2.9 19:42:06 10° WSW 19:45:13 81° NNW 19:46:46 27° ENE
STARLINK-1105 2.9 19:42:32 10° WSW 19:45:40 81° NNW 19:47:13 27° ENE
STARLINK-1206 2.9 19:43:02 10° WSW 19:46:09 80° NNW 19:47:38 28° ENE
Cosmos 2315 Rocket 4.0 19:39:56 10° S 19:46:15 88° E 19:52:39 10° N
SL-08 RB Rocket 3.9 19:41:45 10° S 19:46:15 73° WSW 19:50:50 10° NNW
STARLINK-1247 2.9 19:43:28 10° WSW 19:46:35 80° NNW 19:48:03 29° ENE
ISS -3.7 19:43:37 10° WNW 19:46:59 74° NNE 19:48:11 36° E
STARLINK-1227 2.9 19:43:53 10° WSW 19:47:01 79° NNW 19:48:30 28° ENE
ATLAS CENTAUR R/B 4.2 19:45:28 10° NW 19:47:11 12° NNW 19:48:52 10° N
SJ-6B 3.6 19:43:24 10° S 19:47:23 55° W 19:51:28 10° NNW
STARLINK-1218 2.9 19:44:22 10° WSW 19:47:29 79° NNW 19:48:55 29° ENE
MetOp-A 4.1 19:42:30 10° SSE 19:47:51 86° ENE 19:53:15 10° NNW
STARLINK-1226 2.9 19:44:50 10° WSW 19:47:57 78° NNW 19:49:23 29° ENE
Resurs 1-3 3.5 19:44:43 17° SSE 19:48:08 78° ENE 19:52:32 10° NNW
STARLINK-1254 2.9 19:45:14 10° WSW 19:48:22 78° NNW 19:49:48 29° ENE
STARLINK-1114 3.6 19:44:35 10° WNW 19:48:46 84° NNE 19:50:36 32° ESE
STARLINK-1215 2.9 19:45:44 10° WSW 19:48:51 77° NNW 19:50:14 30° ENE
STARLINK-1239 3.4 19:45:07 10° WSW 19:49:07 75° SSE 19:51:30 23° ENE
STARLINK-1231 2.9 19:46:10 10° WSW 19:49:17 77° NNW 19:50:39 30° ENE
Cosmos 1758 3.3 19:45:47 10° S 19:49:51 84° ESE 19:53:59 10° NNE
ERS-1 Rocket 4.4 19:48:48 19° E 19:50:07 21° ENE 19:53:48 10° N
STARLINK-1232 2.9 19:47:05 10° WSW 19:50:12 76° NNW 19:51:31 31° ENE
STARLINK-1217 2.9 19:47:32 10° WSW 19:50:39 76° NNW 19:51:58 31° ENE
STARLINK-1208 3.0 19:47:57 10° WSW 19:51:05 76° NNW 19:52:25 31° ENE
STARLINK-1229 2.9 19:48:25 10° WSW 19:51:32 75° NNW 19:52:48 32° ENE
BREEZE-M DEB (TANK) 3.5 19:44:47 10° W 19:51:53 86° S 19:53:10 36° ESE
IRIDIUM 104 4.3 19:46:42 10° N 19:51:57 71° E 19:56:26 14° SSE
STARLINK-1271 2.9 19:48:54 10° WSW 19:52:01 75° NNW 19:53:16 33° ENE
STARLINK-1270 2.9 19:49:21 10° WSW 19:52:28 74° NNW 19:53:42 33° ENE
STARLINK-1154 3.0 19:49:47 10° WSW 19:52:54 74° NNW 19:54:07 33° ENE
STARLINK-1240 3.4 19:49:42 10° WSW 19:53:43 79° SSE 19:55:56 26° ENE
STARLINK-1130 (DARKSAT) 3.5 19:49:33 10° WNW 19:53:43 88° NNE 19:55:22 36° ESE
STARLINK-1197 3.0 19:50:41 10° WSW 19:53:48 73° NNW 19:54:59 34° ENE
CZ-2C R/B 4.0 19:49:01 10° S 19:53:52 46° W 19:58:34 10° NNW
STARLINK-1189 3.0 19:51:09 10° WSW 19:54:16 73° NNW 19:55:26 35° ENE
Cosmos 2369 Rocket 2.3 19:49:11 10° NNW 19:54:51 61° ENE 19:57:50 28° SE
STARLINK-1187 3.1 19:52:00 10° WSW 19:55:08 67° NNW 19:56:20 33° NE
STARLINK-1188 3.0 19:52:03 10° WSW 19:55:09 72° NNW 19:56:17 35° ENE
STARLINK-1198 3.0 19:52:17 10° WSW 19:55:24 72° NNW 19:56:31 35° NE
Resurs 01 Rocket 1.6 19:53:05 26° SSE 19:55:30 66° ENE 19:59:54 10° N
STARLINK-1235 3.2 19:52:42 10° W 19:55:50 63° NNW 19:57:05 32° NE
SPOT 5 4.4 19:56:05 17° ENE 19:56:28 17° ENE 19:59:14 10° NNE
STARLINK-1199 3.0 19:53:59 10° WSW 19:57:07 71° NNW 19:58:12 37° NE
STARLINK-1191 3.0 19:54:27 10° WSW 19:57:35 70° NNW 19:58:39 37° NE
STARLINK-67 3.3 19:55:04 10° W 19:57:35 45° NNW 19:58:04 38° NNE
STARLINK-1210 3.1 19:54:53 10° WSW 19:58:01 70° NNW 19:59:05 37° NE
STARLINK-1216 3.4 19:54:19 10° WSW 19:58:21 83° SSE 20:00:23 28° ENE
STARLINK-1221 3.1 19:55:21 10° WSW 19:58:29 69° NNW 19:59:32 37° NE
STARLINK-1084 3.5 19:54:33 10° WNW 19:58:43 88° SSW 20:00:09 40° ESE
STARLINK-1219 3.1 19:55:48 10° WSW 19:58:56 69° NNW 19:59:58 38° NE
STARLINK-1222 3.1 19:56:14 10° WSW 19:59:22 69° NNW 20:00:23 38° NE
STARLINK-1211 3.1 19:56:42 10° WSW 19:59:50 68° NNW 20:00:48 39° NE
STARLINK-1214 3.1 19:57:09 10° WSW 20:00:18 68° NNW 20:01:15 39° NE
STARLINK-1245 3.1 19:57:39 10° WSW 20:00:46 67° NNW 20:01:40 41° NE
IRIDIUM 114 4.2 19:55:52 10° N 20:01:07 84° E 20:05:35 14° S
STARLINK-1238 3.1 19:58:05 10° WSW 20:01:12 67° NNW 20:02:07 40° NE
STARLINK-1205 3.1 19:59:01 10° WSW 20:02:07 66° NNW 20:02:58 42° NE
Meteor 2-15 Rocket 4.3 19:56:11 10° S 20:02:16 84° E 20:08:22 10° NNE
STARLINK-1204 3.1 19:59:27 10° WSW 20:02:33 66° NNW 20:03:23 42° NE
STARLINK-1237 3.4 19:58:59 10° WSW 20:03:00 87° SSE 20:04:52 31° ENE
STARLINK-1098 3.5 19:59:31 10° WNW 20:03:40 84° SSW 20:04:55 44° ESE
SPOT 3 Rocket 4.0 20:00:56 10° S 20:06:06 62° WSW 20:11:18 10° NNW
Cosmos 1726 2.4 20:06:30 47° E 20:06:30 47° E 20:10:02 10° NNE
Meteor 1-21 Rocket 4.1 20:01:54 10° NNW 20:07:32 88° WSW 20:11:31 20° S
STARLINK-1202 3.4 20:03:35 10° WSW 20:07:38 89° N 20:09:19 34° ENE
STARLINK-1123 3.5 20:04:31 10° WNW 20:08:40 80° SSW 20:09:44 49° SE
Nadezhda 1 Rocket 4.4 20:06:17 26° SE 20:09:24 44° E 20:15:24 10° NNE
IRIDIUM 103 4.3 20:05:03 10° N 20:10:18 83° W 20:14:45 14° S
Cosmos 2228 3.6 20:11:03 36° E 20:11:03 36° E 20:14:39 10° NNE
CZ-4C R/B 4.4 20:07:15 10° WNW 20:12:02 24° N 20:17:33 10° NE
MOS 1 Rocket 3.5 20:07:09 10° NNE 20:12:21 76° ESE 20:17:45 10° S
STARLINK-1246 3.5 20:08:41 10° WSW 20:12:46 85° NNW 20:14:18 37° ENE
SAR-Lupe-2 4.4 20:09:51 10° NNE 20:12:21 35° NE 20:12:21 35° NE
STARLINK-1097 3.6 20:09:29 10° WNW 20:13:37 76° SSW 20:14:29 53° SE
Cosmos 292 Rocket 3.7 20:12:23 10° NNW 20:17:12 83° WSW 20:19:07 37° SSE
STARLINK-1099 3.6 20:14:28 10° WNW 20:18:36 71° SSW 20:19:17 57° SSE
Cosmos 1943 3.7 20:19:28 37° E 20:19:28 37° E 20:24:22 10° NE
Cosmos 1943 Rocket 2.3 20:14:35 10° NNW 20:20:07 73° WSW 20:22:51 31° SSE
STARLINK-1224 3.6 20:17:34 10° WSW 20:21:37 79° NNW 20:22:45 45° ENE
NOSS 3-4 (A) 4.3 20:16:01 10° NW 20:22:34 48° NE 20:25:57 30° E
Cosmos 2074 Rocket 4.0 20:16:20 10° N 20:22:38 88° W 20:26:45 23° S
NOSS 3-4 (C) 4.3 20:16:07 10° NW 20:22:40 48° NE 20:26:03 29° E
Cosmos 2058 Rocket 4.5 20:24:10 25° ENE 20:24:10 25° ENE 20:26:40 10° NNE
STARLINK-1104 3.6 20:19:28 10° WNW 20:23:35 67° SSW 20:24:04 60° SSE
STARLINK-1225 3.6 20:22:17 10° WSW 20:26:19 75° NNW 20:27:17 50° NE
Cosmos 1328 3.8 20:22:49 10° N 20:26:45 61° ENE 20:26:45 61° ENE
STARLINK-1203 3.6 20:23:59 10° WSW 20:27:55 71° NNW 20:28:44 52° NE
STARLINK-1144 3.6 20:24:26 10° WNW 20:28:32 63° SSW 20:28:50 61° S
Cosmos 1437 3.4 20:26:14 10° NNW 20:28:32 47° NNW 20:28:32 47° NNW
STARLINK-1234 3.9 20:27:26 10° W 20:29:58 42° NW 20:29:58 42° NW
STARLINK-1230 3.7 20:26:56 10° WSW 20:30:58 73° NNW 20:31:44 55° NE
Cosmos 1953 2.7 20:29:29 23° SSW 20:31:48 62° WNW 20:35:46 10° N
Meteor 2-10 4.0 20:28:33 19° S 20:32:30 86° E 20:38:04 10° NNE
SPOT 1/Viking Rocket 3.7 20:32:06 48° ESE 20:32:58 54° ENE 20:38:03 10° N
NOSS 3-3 (A) 4.0 20:27:37 10° SSW 20:33:17 52° ESE 20:39:40 10° NE
NOSS 3-3 (C) 4.0 20:27:44 10° SSW 20:33:24 52° ESE 20:39:46 10° NE
STARLINK-1103 3.7 20:29:25 10° WNW 20:33:30 59° SSW 20:33:37 59° SSW
Spot 2 Rocket 3.4 20:33:06 49° SSE 20:34:32 82° ENE 20:39:42 10° NNW
Cosmos 2084 Rocket 3.8 20:30:10 10° NW 20:34:35 58° SW 20:35:19 50° SSW
STARLINK-1243 3.7 20:31:39 10° WSW 20:35:41 70° NNW 20:36:16 59° NE
SL-16 R/B 3.1 20:30:16 10° SW 20:35:44 48° NW 20:41:14 10° NNE
Cosmos 1610 Rocket 4.4 20:30:24 10° N 20:36:41 80° E 20:39:03 41° SSE
STARLINK-1101 3.9 20:34:25 10° WNW 20:38:25 55° SW 20:38:25 55° SW
STARLINK-1236 3.7 20:36:20 10° W 20:40:22 67° NNW 20:40:46 62° NNE
IGS 5A 3.5 20:42:14 63° NE 20:42:14 63° NE 20:46:04 10° N
Aureole 2 Rocket 3.4 20:39:30 10° NW 20:42:44 43° W 20:42:44 43° W
STARLINK-1102 4.1 20:39:24 10° WNW 20:43:11 51° SW 20:43:11 51° SW
STARLINK-1111 4.3 20:44:23 10° WNW 20:47:58 46° SW 20:47:58 46° SW
Terra 2.7 20:49:37 35° NE 20:49:37 35° NE 20:53:28 10° N
ERBS 4.4 20:46:39 10° WNW 20:49:26 23° N 20:49:56 22° N
STARLINK-1269 3.9 20:45:48 10° W 20:49:49 63° NNW 20:49:50 63° NNW
CARTOSAT-1 4.2 20:50:52 43° NE 20:50:52 43° NE 20:54:18 10° N
Cosmos 2341 Rocket 4.1 20:46:32 10° N 20:52:50 60° ENE 20:53:51 54° ESE
STARLINK-1073 4.5 20:49:23 10° WNW 20:52:45 42° WSW 20:52:45 42° WSW
Cosmos 1703 3.6 20:49:30 10° NNW 20:53:09 63° WNW 20:53:09 63° WNW
STARLINK-1200 4.0 20:50:31 10° W 20:54:21 60° NNW 20:54:21 60° NNW
Cosmos 1726 Rocket 3.6 20:55:09 72° NNE 20:55:09 72° NNE 20:59:09 10° N
ATLAS 2AS CENTAUR R/B 2.9 20:47:51 10° NW 20:55:35 69° NE 20:57:41 48° ESE
Cosmos 1825 Rocket 4.4 20:52:39 10° NNW 20:56:55 47° W 20:57:49 40° SW
Meteor 1-16 Rocket 4.3 20:54:16 27° SSW 20:57:12 71° WNW 21:02:41 10° N
Cosmos 1603 3.5 20:53:25 22° SSW 20:57:13 85° ESE 21:02:52 10° NNE
USA 234 3.4 20:51:57 10° ENE 20:58:29 75° NNW 21:05:00 10° WSW
STARLINK-1192 4.1 20:55:11 10° W 20:58:49 56° NW 20:58:49 56° NW
STARLINK-1244 4.3 21:00:01 10° W 21:03:26 52° NW 21:03:26 52° NW
APEX 4.5 20:58:11 10° NNW 21:05:11 65° NE 21:06:05 58° E
CZ-2C R/B 3.7 21:02:46 10° N 21:07:38 42° WNW 21:12:28 10° SW
Aureole 1 Rocket 4.3 21:07:14 54° SE 21:08:26 61° ESE 21:14:57 10° NNE
STARLINK-1138 4.5 21:04:44 10° W 21:07:58 47° NW 21:07:58 47° NW
COSMOS 2455 3.4 21:04:42 10° NNW 21:10:30 45° NE 21:11:09 44° ENE
Meteor 1-11 4.4 21:05:14 10° NNW 21:11:01 71° W 21:12:06 57° SSW
Cosmos 1953 Rocket 4.3 21:08:17 10° NNW 21:12:34 48° W 21:12:43 47° W
Iridium 4 Rocket 4.5 21:09:17 10° N 21:11:53 30° NNE 21:11:53 30° NNE
Cosmos 1461 4.2 21:11:39 10° NNW 21:15:09 37° NNE 21:15:09 37° NNE
Cosmos 2251 Rocket 4.4 21:13:03 10° SW 21:18:14 49° WNW 21:23:30 10° NNE
Cosmos 2218 Rocket 4.0 21:15:26 10° N 21:21:25 61° ENE 21:21:25 61° ENE
Cosmos 1656 Rocket 3.8 21:16:45 10° NNW 21:22:23 65° WSW 21:22:37 64° SW
ISS -0.8 21:20:35 10° W 21:21:09 14° W 21:21:09 14° W
ATLAS CENTAUR R/B 4.2 21:27:08 10° N 21:27:56 10° N 21:28:44 10° NNE
ERS-1 Rocket 3.2 21:28:47 65° WNW 21:28:47 65° WNW 21:33:29 10° NNW
Resurs 01 Rocket 4.1 21:30:38 13° WSW 21:32:27 16° W 21:35:06 10° NW
Cosmos 2181 Rocket 4.0 21:33:10 68° ENE 21:33:10 68° ENE 21:38:52 10° NNE
SPOT 5 3.6 21:35:18 46° NW 21:35:18 46° NW 21:38:29 10° NNW
In-Cosmos 22 Rocket 4.5 21:30:04 10° N 21:35:12 62° NE 21:35:12 62° NE
Cosmos 2369 Rocket 3.8 21:33:52 10° NW 21:38:28 26° WSW 21:39:38 24° WSW
SL-8 Rocket 4.1 21:50:22 10° NNW 21:56:35 68° W 21:56:35 68° W
CZ-4C R/B 4.2 21:57:01 10° NW 22:02:40 30° NNE 22:06:33 19° ENE
Cosmos 1943 4.2 22:01:06 32° W 22:03:11 44° NW 22:08:37 10° NNE
Cosmos 2366 rocket 4.1 21:57:42 10° NNW 22:03:19 69° NW 22:03:19 69° NW
Mayak 1.3 22:05:59 10° NNE 22:06:55 16° NNE 22:06:55 16° NNE
NOSS 3-4 (A) 4.1 22:06:56 10° NW 22:13:24 57° WSW 22:13:24 57° WSW
NOSS 3-4 (C) 4.1 22:07:02 10° NW 22:13:29 58° WSW 22:13:29 58° WSW
Terra 3.7 22:28:29 26° WNW 22:28:29 26° WNW 22:31:10 10° NNW
Cosmos 1697 Rocket 4.0 22:21:50 10° NNW 22:26:03 33° NNE 22:26:03 33° NNE
USA 234 4.0 22:34:53 10° ENE 22:41:06 48° N 22:47:18 10° WNW
ATLAS 2AS CENTAUR R/B 3.8 22:39:26 10° NW 22:45:07 34° W 22:45:07 34° W
Cosmos 1980 Rocket 3.7 22:46:56 10° NNW 22:50:54 29° NNE 22:50:54 29° NNE
COSMOS 2455 4.2 22:50:48 10° NW 22:54:18 32° WNW 22:54:18 32° WNW
ATLAS CENTAUR R/B 4.5 23:05:01 10° NNW 23:05:26 12° NNW 23:05:26 12° NNW
ATLAS 5 CENTAUR R/B 4.2 23:39:11 18° NNE 23:39:11 18° NNE 23:40:41 10° NE
Cosmos 1833 Rocket 4.4 23:45:10 26° NE 23:45:10 26° NE 23:47:36 10° NNE
Mayak 1.9 23:43:06 10° NNW 23:43:29 11° NNW 23:43:29 11° NNW
